This demonstration page uses our WeatherBlox Daily Observations layout. Learn more.

Left ArrowRight Arrow

30.21309, -93.2044

Hourly Observations for May 7, 2015

Temp ( °F °C ) Dew Point ( °F °C ) Humidity (%) Winds ( mph kmh ) Pressure ( in mb ) Visibility ( mi km ) Precip ( " mm )
12:15 am 00:15 Clear 69 20.6 67 19.7 95 95 SE 5 7 30.00 1016 10 16 0.00 0.00
12:35 am 00:35 Clear 69 20.5 67 19.6 95 95 SE 5 7 30.00 1016 10 16 0.00 0.00
12:55 am 00:55 Clear 70 20.9 68 20 95 95 SE 6 9 30.00 1016 10 16 0.00 0.00
1:15 am 01:15 Clear 69 20.6 67 19.7 95 95 SE 6 9 30.00 1016 10 16 0.00 0.00
1:35 am 01:35 Clear 69 20.5 67 19.7 95 95 Calm 30.00 1016 10 16 0.00 0.00
1:55 am 01:55 Clear 69 20.5 67 19.6 95 95 E 3 6 29.97 1015 10 16 0.00 0.00
2:15 am 02:15 Clear 68 20.2 67 19.6 96 96 E 3 6 29.97 1015 10 16 0.00 0.00
2:35 am 02:35 Clear 68 19.9 67 19.4 97 97 ENE 5 7 29.97 1015 10 16 0.00 0.00
2:55 am 02:55 Partly Cloudy 68 20.1 67 19.7 98 98 E 3 6 29.97 1015 7 11 0.00 0.00
3:15 am 03:15 Mostly Cloudy 68 20.2 68 19.8 98 98 E 3 6 29.97 1015 7 11 0.00 0.00
3:35 am 03:35 Mostly Cloudy 69 20.5 68 20 97 97 E 3 6 29.97 1015 7 11 0.00 0.00
3:55 am 03:55 Cloudy 69 20.7 68 20.2 97 97 E 3 6 29.97 1015 7 11 0.00 0.00
4:15 am 04:15 Cloudy 69 20.8 69 20.3 97 97 E 5 7 29.97 1015 7 11 0.00 0.00
4:35 am 04:35 Partly Cloudy 69 20.7 68 20.2 97 97 E 5 7 29.97 1015 7 11 0.00 0.00
4:55 am 04:55 Mostly Cloudy 69 20.7 69 20.3 98 98 E 3 6 29.97 1015 7 11 0.00 0.00
5:15 am 05:15 Cloudy 69 20.8 69 20.5 98 98 E 3 6 29.97 1015 7 11 0.00 0.00
6:00 am 06:00 Mostly Cloudy 70 21 70 21 100 100 ESE 3 6 29.97 1015 10 16 0.00 0.00
6:55 am 06:55 Partly Cloudy with Mist and Fog 70 21 70 21 100 100 ESE 3 6 29.97 1015 5 8 0.00 0.00
7:45 am 07:45 Mostly Cloudy 73 23 72 22 94 94 ESE 3 6 30.00 1016 7 11 0.00 0.00
8:06 am 08:06 Mostly Cloudy 73 23 72 22 94 94 ESE 6 9 30.00 1016 7 11 0.00 0.00
8:45 am 08:45 Mostly Cloudy 79 26 73 23 84 84 ESE 12 19 30.00 1016 10 16 0.00 0.00
9:47 am 09:47 Mostly Cloudy 81 27 72 22 74 74 SSE 13 20 30.00 1016 10 16 0.00 0.00
10:50 am 10:50 Mostly Cloudy 82 28 72 22 70 70 SSE 13 20 30.03 1017 10 16 0.00 0.00
11:50 am 11:50 Mostly Cloudy 84 29 70 21 62 62 SSE 13 20 30.03 1017 10 16 0.00 0.00
12:45 pm 12:45 Mostly Cloudy 84 29 70 21 62 62 SSE 15 24 30.00 1016 10 16 0.00 0.00
1:50 pm 13:50 Mostly Cloudy 84 29 70 21 62 62 SSE 14 22 30.00 1016 10 16 0.00 0.00
2:50 pm 14:50 Mostly Cloudy 68 20 70 21 100 100 S 16 26 30.00 1016 10 16 0.00 0.00
3:50 pm 15:50 Partly Cloudy 84 29 70 21 62 62 S 15 24 29.97 1015 10 16 0.00 0.00
4:50 pm 16:50 Partly Cloudy 82 28 70 21 66 66 S 17 28 29.97 1015 10 16 0.00 0.00
5:50 pm 17:50 Partly Cloudy 81 27 70 21 70 70 SSE 16 26 29.97 1015 10 16 0.00 0.00
6:50 pm 18:50 Mostly Cloudy 81 27 72 22 74 74 SSE 14 22 29.97 1015 10 16 0.00 0.00
7:50 pm 19:50 Mostly Cloudy 77 25 72 22 83 83 SSE 10 17 29.97 1015 10 16 0.00 0.00
8:50 pm 20:50 Mostly Cloudy 75 24 72 22 89 89 SE 13 20 29.97 1015 10 16 0.00 0.00
9:50 pm 21:50 Cloudy 75 24 72 22 89 89 SE 14 22 29.97 1015 10 16 0.00 0.00
10:15 pm 22:15 Cloudy 75 24 72 22.3 90 90 SE 12 19 29.97 1015 10 16 0.00 0.00
10:35 pm 22:35 Cloudy 75 24 72 22.2 90 90 SE 14 22 29.97 1015 10 16 0.00 0.00
10:55 pm 22:55 Mostly Cloudy 75 23.8 72 22.1 90 90 SSE 12 19 29.97 1015 10 16 0.00 0.00
11:15 pm 23:15 Partly Cloudy 74 23.5 72 22 91 91 SE 9 15 29.97 1015 10 16 0.00 0.00
11:35 pm 23:35 Mostly Cloudy 74 23.2 72 22 93 93 SSE 10 17 29.97 1015 10 16 0.00 0.00
11:55 pm 23:55 Mostly Cloudy 74 23.1 72 22 94 94 SSE 9 15 29.97 1015 10 16 0.00 0.00

Powered by AerisWeather